Time,TemperatureF,DewpointF,PressureIn,WindDirection,WindDirectionDegrees,WindSpeedMPH,WindSpeedGustMPH,Humidity,HourlyPrecipIn,Conditions,Clouds,dailyrainin,SoftwareType,DateUTC
2014-07-29 00:01:00,75.6,48.2,30.12,NW,315,1.3,2.0,38,0.00,,,0.00,WUHU216HW,2014-07-29 06:01:00,
2014-07-29 00:06:00,75.6,48.2,30.12,North,0,1.1,2.0,38,0.00,,,0.00,WUHU216HW,2014-07-29 06:06:00,
2014-07-29 00:11:00,75.4,47.3,30.12,NE,45,1.1,2.0,37,0.00,,,0.00,WUHU216HW,2014-07-29 06:11:00,
2014-07-29 00:16:00,75.4,48.0,30.12,North,0,2.9,2.9,38,0.00,,,0.00,WUHU216HW,2014-07-29 06:16:00,
2014-07-29 00:21:00,75.4,47.3,30.12,North,0,0.7,2.9,37,0.00,,,0.00,WUHU216HW,2014-07-29 06:21:00,
2014-07-29 00:26:00,75.4,47.3,30.13,North,0,1.1,1.8,37,0.00,,,0.00,WUHU216HW,2014-07-29 06:26:00,
2014-07-29 00:31:00,75.4,47.3,30.13,NNE,23,0.4,1.1,37,0.00,,,0.00,WUHU216HW,2014-07-29 06:31:00,
2014-07-29 00:36:00,75.2,47.1,30.13,NNE,23,0.2,1.1,37,0.00,,,0.00,WUHU216HW,2014-07-29 06:36:00,
2014-07-29 00:41:00,75.2,47.1,30.13,WNW,293,0.7,1.1,37,0.00,,,0.00,WUHU216HW,2014-07-29 06:41:00,
2014-07-29 00:46:00,75.2,47.1,30.13,NNW,338,0.9,1.1,37,0.00,,,0.00,WUHU216HW,2014-07-29 06:46:00,
2014-07-29 00:51:00,75.2,47.1,30.13,NNE,23,1.1,1.8,37,0.00,,,0.00,WUHU216HW,2014-07-29 06:51:00,
2014-07-29 00:56:00,75.2,47.1,30.13,NNE,23,0.7,2.5,37,0.00,,,0.00,WUHU216HW,2014-07-29 06:56:00,
2014-07-29 01:01:00,74.9,47.5,30.13,NNE,23,0.0,2.5,38,0.00,,,0.00,WUHU216HW,2014-07-29 07:01:00,
2014-07-29 01:06:00,74.9,47.5,30.12,NNW,338,0.2,1.8,38,0.00,,,0.00,WUHU216HW,2014-07-29 07:06:00,
2014-07-29 01:11:00,74.7,48.1,30.12,West,270,0.4,2.2,39,0.00,,,0.00,WUHU216HW,2014-07-29 07:11:00,
2014-07-29 01:16:00,74.5,47.9,30.13,West,270,1.1,2.2,39,0.00,,,0.00,WUHU216HW,2014-07-29 07:16:00,
2014-07-29 01:21:00,74.3,47.8,30.12,NNW,338,1.1,1.3,39,0.00,,,0.00,WUHU216HW,2014-07-29 07:21:00,
2014-07-29 01:27:00,74.2,47.6,30.12,NNW,338,1.6,1.6,39,0.00,,,0.00,WUHU216HW,2014-07-29 07:27:00,
2014-07-29 01:31:00,74.0,47.4,30.12,North,0,0.2,1.6,39,0.00,,,0.00,WUHU216HW,2014-07-29 07:31:00,
2014-07-29 01:36:00,74.0,47.4,30.12,NNW,338,0.0,1.3,39,0.00,,,0.00,WUHU216HW,2014-07-29 07:36:00,
2014-07-29 01:42:00,73.8,47.3,30.12,NNW,338,0.0,0.4,39,0.00,,,0.00,WUHU216HW,2014-07-29 07:42:00,
2014-07-29 01:47:00,73.8,47.3,30.11,NNE,23,0.0,1.1,39,0.00,,,0.00,WUHU216HW,2014-07-29 07:47:00,
2014-07-29 01:51:00,73.6,47.1,30.11,NNW,338,0.0,1.1,39,0.00,,,0.00,WUHU216HW,2014-07-29 07:51:00,
2014-07-29 01:57:00,73.4,47.0,30.12,North,0,0.0,0.7,39,0.00,,,0.00,WUHU216HW,2014-07-29 07:57:00,
2014-07-29 02:01:00,73.4,47.0,30.12,NE,45,0.4,1.3,39,0.00,,,0.00,WUHU216HW,2014-07-29 08:01:00,
2014-07-29 02:06:00,73.3,46.8,30.12,West,270,0.0,1.3,39,0.00,,,0.00,WUHU216HW,2014-07-29 08:06:00,
2014-07-29 02:11:00,73.1,46.6,30.12,NE,45,0.0,0.7,39,0.00,,,0.00,WUHU216HW,2014-07-29 08:11:00,
2014-07-29 02:16:00,73.1,47.3,30.11,NE,45,0.0,0.4,40,0.00,,,0.00,WUHU216HW,2014-07-29 08:16:00,
2014-07-29 02:21:00,72.7,47.1,30.12,North,0,0.4,0.9,40,0.00,,,0.00,WUHU216HW,2014-07-29 08:21:00,
2014-07-29 02:26:00,72.7,47.1,30.12,North,0,0.4,0.9,40,0.00,,,0.00,WUHU216HW,2014-07-29 08:26:00,
2014-07-29 02:31:00,72.5,46.9,30.12,NNW,338,0.0,0.4,40,0.00,,,0.00,WUHU216HW,2014-07-29 08:31:00,
2014-07-29 02:36:00,72.4,46.7,30.12,NNW,338,0.0,0.7,40,0.00,,,0.00,WUHU216HW,2014-07-29 08:36:00,
2014-07-29 02:41:00,72.2,46.5,30.12,NNW,338,0.0,0.9,40,0.00,,,0.00,WUHU216HW,2014-07-29 08:41:00,
2014-07-29 02:46:00,72.0,46.5,30.12,NNE,23,0.4,2.2,40,0.00,,,0.00,WUHU216HW,2014-07-29 08:46:00,
2014-07-29 02:51:00,71.8,46.3,30.12,NW,315,0.4,2.2,40,0.00,,,0.00,WUHU216HW,2014-07-29 08:51:00,
2014-07-29 02:56:00,71.8,46.8,30.12,NW,315,0.0,0.4,41,0.00,,,0.00,WUHU216HW,2014-07-29 08:56:00,
2014-07-29 03:01:00,71.6,46.7,30.12,NW,315,0.0,0.0,41,0.00,,,0.00,WUHU216HW,2014-07-29 09:01:00,
2014-07-29 03:06:00,71.5,46.5,30.12,NW,315,0.0,0.0,41,0.00,,,0.00,WUHU216HW,2014-07-29 09:06:00,
2014-07-29 03:11:00,71.3,46.4,30.12,NW,315,0.0,0.0,41,0.00,,,0.00,WUHU216HW,2014-07-29 09:11:00,
2014-07-29 03:16:00,71.1,46.8,30.12,NW,315,0.0,0.0,42,0.00,,,0.00,WUHU216HW,2014-07-29 09:16:00,
2014-07-29 03:21:00,70.9,46.6,30.12,NW,315,0.0,0.0,42,0.00,,,0.00,WUHU216HW,2014-07-29 09:21:00,
2014-07-29 03:26:00,70.6,46.3,30.12,WNW,293,0.0,0.4,42,0.00,,,0.00,WUHU216HW,2014-07-29 09:26:00,
2014-07-29 03:32:00,70.4,46.2,30.12,WNW,293,0.2,0.4,42,0.00,,,0.00,WUHU216HW,2014-07-29 09:32:00,
2014-07-29 03:37:00,70.2,46.0,30.11,West,270,0.0,0.2,42,0.00,,,0.00,WUHU216HW,2014-07-29 09:37:00,
2014-07-29 03:42:00,69.8,45.6,30.12,West,270,1.1,1.1,42,0.00,,,0.00,WUHU216HW,2014-07-29 09:42:00,
2014-07-29 03:47:00,69.7,46.1,30.12,WNW,293,0.7,1.3,43,0.00,,,0.00,WUHU216HW,2014-07-29 09:47:00,
2014-07-29 03:52:00,69.5,45.9,30.12,West,270,1.1,1.3,43,0.00,,,0.00,WUHU216HW,2014-07-29 09:52:00,
2014-07-29 03:56:00,69.5,45.9,30.12,West,270,0.4,1.6,43,0.00,,,0.00,WUHU216HW,2014-07-29 09:56:00,
2014-07-29 04:01:00,69.1,46.2,30.11,West,270,0.0,1.6,44,0.00,,,0.00,WUHU216HW,2014-07-29 10:01:00,
2014-07-29 04:06:00,69.1,46.2,30.11,West,270,1.8,1.8,44,0.00,,,0.00,WUHU216HW,2014-07-29 10:06:00,
2014-07-29 04:11:00,68.9,46.0,30.12,West,270,1.8,2.0,44,0.00,,,0.00,WUHU216HW,2014-07-29 10:11:00,
2014-07-29 04:17:00,68.8,45.3,30.12,West,270,1.3,2.0,43,0.00,,,0.00,WUHU216HW,2014-07-29 10:17:00,
2014-07-29 04:22:00,68.6,45.1,30.12,NW,315,0.0,1.3,43,0.00,,,0.00,WUHU216HW,2014-07-29 10:22:00,
2014-07-29 04:27:00,68.2,44.8,30.12,NW,315,0.0,0.7,43,0.00,,,0.00,WUHU216HW,2014-07-29 10:27:00,
2014-07-29 04:32:00,67.9,45.1,30.12,North,0,0.7,1.8,44,0.00,,,0.00,WUHU216HW,2014-07-29 10:32:00,
2014-07-29 04:37:00,67.5,44.7,30.12,North,0,0.0,1.8,44,0.00,,,0.00,WUHU216HW,2014-07-29 10:37:00,
2014-07-29 04:42:00,67.3,44.6,30.12,NW,315,0.0,1.6,44,0.00,,,0.00,WUHU216HW,2014-07-29 10:42:00,
2014-07-29 04:47:00,67.3,44.6,30.12,NW,315,0.0,0.2,44,0.00,,,0.00,WUHU216HW,2014-07-29 10:47:00,
2014-07-29 04:52:00,67.3,45.2,30.12,NW,315,0.0,0.2,45,0.00,,,0.00,WUHU216HW,2014-07-29 10:52:00,
2014-07-29 04:57:00,67.1,45.0,30.12,NW,315,0.0,0.2,45,0.00,,,0.00,WUHU216HW,2014-07-29 10:57:00,
2014-07-29 05:02:00,67.0,44.8,30.12,NW,315,0.0,0.0,45,0.00,,,0.00,WUHU216HW,2014-07-29 11:02:00,
2014-07-29 05:07:00,67.0,44.8,30.13,SSW,203,0.7,1.1,45,0.00,,,0.00,WUHU216HW,2014-07-29 11:07:00,
2014-07-29 05:12:00,67.0,44.8,30.13,WSW,248,1.8,1.8,45,0.00,,,0.00,WUHU216HW,2014-07-29 11:12:00,
2014-07-29 05:17:00,66.8,45.3,30.13,NNW,338,0.7,1.8,46,0.00,,,0.00,WUHU216HW,2014-07-29 11:17:00,
2014-07-29 05:22:00,66.6,45.1,30.13,North,0,1.8,1.8,46,0.00,,,0.00,WUHU216HW,2014-07-29 11:22:00,
2014-07-29 05:27:00,66.4,45.5,30.13,NNE,23,1.3,2.7,47,0.00,,,0.00,WUHU216HW,2014-07-29 11:27:00,
2014-07-29 05:32:00,66.6,45.1,30.14,NNW,338,1.8,2.7,46,0.00,,,0.00,WUHU216HW,2014-07-29 11:32:00,
2014-07-29 05:37:00,66.6,45.1,30.13,NE,45,0.9,2.5,46,0.00,,,0.00,WUHU216HW,2014-07-29 11:37:00,
2014-07-29 05:42:00,66.6,45.7,30.13,North,0,2.0,2.5,47,0.00,,,0.00,WUHU216HW,2014-07-29 11:42:00,
2014-07-29 05:47:00,66.8,45.9,30.14,NNE,23,1.3,2.0,47,0.00,,,0.00,WUHU216HW,2014-07-29 11:47:00,
2014-07-29 05:52:00,67.0,45.5,30.13,NE,45,1.3,2.5,46,0.00,,,0.00,WUHU216HW,2014-07-29 11:52:00,
2014-07-29 05:57:00,67.0,45.5,30.14,NE,45,2.0,2.7,46,0.00,,,0.00,WUHU216HW,2014-07-29 11:57:00,
2014-07-29 06:02:00,67.1,45.6,30.13,NNW,338,1.3,2.7,46,0.00,,,0.00,WUHU216HW,2014-07-29 12:02:00,
2014-07-29 06:07:00,67.3,45.7,30.14,NNE,23,0.9,1.8,46,0.00,,,0.00,WUHU216HW,2014-07-29 12:07:00,
2014-07-29 06:12:00,67.3,46.4,30.14,NNE,23,0.9,1.8,47,0.00,,,0.00,WUHU216HW,2014-07-29 12:12:00,
2014-07-29 06:17:00,67.3,46.4,30.14,NNE,23,0.9,2.0,47,0.00,,,0.00,WUHU216HW,2014-07-29 12:17:00,
2014-07-29 06:22:00,67.3,46.4,30.14,East,90,1.1,2.7,47,0.00,,,0.00,WUHU216HW,2014-07-29 12:22:00,
2014-07-29 06:27:00,67.3,46.4,30.14,North,0,0.9,3.4,47,0.00,,,0.00,WUHU216HW,2014-07-29 12:27:00,
2014-07-29 06:32:00,67.1,46.2,30.14,North,0,0.9,3.4,47,0.00,,,0.00,WUHU216HW,2014-07-29 12:32:00,
2014-07-29 06:37:00,67.3,47.0,30.15,NE,45,0.9,1.8,48,0.00,,,0.00,WUHU216HW,2014-07-29 12:37:00,
2014-07-29 06:42:00,67.3,46.4,30.14,NNE,23,0.7,1.8,47,0.00,,,0.00,WUHU216HW,2014-07-29 12:42:00,
2014-07-29 06:47:00,67.3,46.4,30.15,NE,45,2.0,4.0,47,0.00,,,0.00,WUHU216HW,2014-07-29 12:47:00,
2014-07-29 06:52:00,67.3,47.0,30.14,NE,45,1.6,4.0,48,0.00,,,0.00,WUHU216HW,2014-07-29 12:52:00,
2014-07-29 06:57:00,67.5,47.1,30.14,NNE,23,1.8,3.1,48,0.00,,,0.00,WUHU216HW,2014-07-29 12:57:00,
2014-07-29 07:02:00,67.5,47.1,30.14,NE,45,0.9,3.1,48,0.00,,,0.00,WUHU216HW,2014-07-29 13:02:00,
2014-07-29 07:07:00,67.7,47.3,30.14,ENE,68,3.4,3.4,48,0.00,,,0.00,WUHU216HW,2014-07-29 13:07:00,
2014-07-29 07:12:00,67.9,47.4,30.15,NE,45,1.8,3.4,48,0.00,,,0.00,WUHU216HW,2014-07-29 13:12:00,
2014-07-29 07:17:00,68.0,47.6,30.15,NE,45,0.9,2.7,48,0.00,,,0.00,WUHU216HW,2014-07-29 13:17:00,
2014-07-29 07:22:00,68.6,48.7,30.15,NE,45,1.6,2.7,49,0.00,,,0.00,WUHU216HW,2014-07-29 13:22:00,
2014-07-29 07:27:00,68.8,48.2,30.15,NE,45,1.1,2.2,48,0.00,,,0.00,WUHU216HW,2014-07-29 13:27:00,
2014-07-29 07:32:00,68.8,48.9,30.15,North,0,0.2,2.2,49,0.00,,,0.00,WUHU216HW,2014-07-29 13:32:00,
2014-07-29 07:37:00,68.9,49.0,30.15,North,0,0.0,2.2,49,0.00,,,0.00,WUHU216HW,2014-07-29 13:37:00,
2014-07-29 07:42:00,68.9,49.0,30.15,NNE,23,2.5,2.5,49,0.00,,,0.00,WUHU216HW,2014-07-29 13:42:00,
2014-07-29 07:47:00,68.9,49.0,30.16,NNE,23,0.4,2.5,49,0.00,,,0.00,WUHU216HW,2014-07-29 13:47:00,
2014-07-29 07:52:00,68.9,49.0,30.16,NE,45,0.7,2.5,49,0.00,,,0.00,WUHU216HW,2014-07-29 13:52:00,
2014-07-29 07:57:00,69.1,49.8,30.15,NE,45,1.6,2.5,50,0.00,,,0.00,WUHU216HW,2014-07-29 13:57:00,
2014-07-29 08:02:00,68.9,49.6,30.15,ENE,68,1.6,2.5,50,0.00,,,0.00,WUHU216HW,2014-07-29 14:02:00,
2014-07-29 08:07:00,69.1,49.8,30.16,NNE,23,2.5,2.5,50,0.00,,,0.00,WUHU216HW,2014-07-29 14:07:00,
2014-07-29 08:12:00,69.1,49.8,30.16,NE,45,0.0,2.5,50,0.00,,,0.00,WUHU216HW,2014-07-29 14:12:00,
2014-07-29 08:17:00,69.1,49.8,30.16,NNE,23,0.0,1.3,50,0.00,,,0.00,WUHU216HW,2014-07-29 14:17:00,
2014-07-29 08:22:00,69.5,50.0,30.16,NE,45,0.9,3.1,50,0.00,,,0.00,WUHU216HW,2014-07-29 14:22:00,
2014-07-29 08:27:00,69.5,50.6,30.16,ENE,68,1.1,3.1,51,0.00,,,0.00,WUHU216HW,2014-07-29 14:27:00,
2014-07-29 08:32:00,69.7,50.8,30.16,NE,45,1.1,2.9,51,0.00,,,0.00,WUHU216HW,2014-07-29 14:32:00,
2014-07-29 08:37:00,70.0,51.0,30.15,NE,45,0.4,2.5,51,0.00,,,0.00,WUHU216HW,2014-07-29 14:37:00,
2014-07-29 08:42:00,70.2,51.2,30.16,NNE,23,1.3,2.0,51,0.00,,,0.00,WUHU216HW,2014-07-29 14:42:00,
2014-07-29 08:47:00,70.9,52.4,30.16,ENE,68,0.7,2.7,52,0.00,,,0.00,WUHU216HW,2014-07-29 14:47:00,
2014-07-29 08:52:00,71.6,53.0,30.16,ENE,68,2.0,2.7,52,0.00,,,0.00,WUHU216HW,2014-07-29 14:52:00,
2014-07-29 08:57:00,72.4,53.2,30.16,NNE,23,2.2,4.0,51,0.00,,,0.00,WUHU216HW,2014-07-29 14:57:00,
2014-07-29 09:02:00,72.7,53.5,30.16,NNE,23,0.4,4.0,51,0.00,,,0.00,WUHU216HW,2014-07-29 15:02:00,
2014-07-29 09:07:00,73.1,53.3,30.16,NE,45,0.4,3.4,50,0.00,,,0.00,WUHU216HW,2014-07-29 15:07:00,
2014-07-29 09:12:00,73.8,54.6,30.16,SSE,158,1.1,1.3,51,0.00,,,0.00,WUHU216HW,2014-07-29 15:12:00,
2014-07-29 09:17:00,74.9,55.1,30.16,SSE,158,0.0,1.6,50,0.00,,,0.00,WUHU216HW,2014-07-29 15:17:00,
2014-07-29 09:22:00,76.0,54.9,30.16,NE,45,0.4,2.0,48,0.00,,,0.00,WUHU216HW,2014-07-29 15:22:00,
2014-07-29 09:27:00,76.7,54.9,30.16,SE,135,1.1,2.5,47,0.00,,,0.00,WUHU216HW,2014-07-29 15:27:00,
2014-07-29 09:32:00,77.4,54.9,30.16,NE,45,0.7,2.5,46,0.00,,,0.00,WUHU216HW,2014-07-29 15:32:00,
2014-07-29 09:37:00,78.1,55.0,30.16,NNE,23,0.7,4.9,45,0.00,,,0.00,WUHU216HW,2014-07-29 15:37:00,
2014-07-29 09:42:00,79.2,56.0,30.15,NNE,23,0.0,4.9,45,0.00,,,0.00,WUHU216HW,2014-07-29 15:42:00,
2014-07-29 09:47:00,79.9,56.0,30.15,NE,45,0.2,2.7,44,0.00,,,0.00,WUHU216HW,2014-07-29 15:47:00,
2014-07-29 09:52:00,80.6,56.0,30.15,NE,45,1.1,2.7,43,0.00,,,0.00,WUHU216HW,2014-07-29 15:52:00,
2014-07-29 09:57:00,81.5,56.3,30.14,SE,135,0.0,2.7,42,0.00,,,0.00,WUHU216HW,2014-07-29 15:57:00,